Tracking 25711 objects as of 23-May-2022
HD Live streaming from Space Station
objects crossing your sky now

COSMOS 1275 DEB

Track COSMOS 1275 DEB now!
10-day predictions


NORAD ID: 12963
Int'l Code: 1981-053EJ
Perigee: 946.2 km
Apogee: 985.3 km
Inclination: 82.9 °
Period: 104.2 minutes
Semi major axis: 7336 km
RCS: 0.047 m2 (small)
Launch date: June 4, 1981
Source: Commonwealth of Independent States (former USSR) (CIS)
Launch site: PLESETSK MISSILE AND SPACE COMPLEX (PKMTR)

Note: This is SATELLITE DEBRIS
aabbcc
Your satellite tracking list
Your tracking list is empty




NASA's NSSDC Master Catalog

Two Line Element Set (TLE):
1 12963U 81053EJ  22142.63658025  .00000500  00000-0  45378-3 0  9999
2 12963  82.9477 207.1363 0026615  98.7618  26.3636 13.81490554 40696
Source of the keplerian elements: AFSPC